This is the latest recevied weather packets stored in our database for station/object WB0OCV. If no packets are shown the sender has not sent any weather packets the latest 10 day(s).
| Time | Temp. | Humidity | Pressure | Rain* | Wind** | Luminosity | Snow |
|---|---|---|---|---|---|---|---|
| 1778179880 | 18.33° C | 62% | 1008.3 hPa | 0 mm | - | 703 W/m² | - |
| 1778179579 | 17.78° C | 64% | 1008.4 hPa | 0 mm | - | 716 W/m² | - |
| 1778179276 | 17.78° C | 64% | 1008.5 hPa | 0 mm | - | 724 W/m² | - |
| 1778178972 | 17.78° C | 67% | 1008.8 hPa | 0 mm | - | 730 W/m² | - |
| 1778178670 | 17.22° C | 65% | 1008.6 hPa | 0 mm | - | 736 W/m² | - |
| 1778178366 | 16.67° C | 68% | 1008.9 hPa | 0 mm | - | 813 W/m² | - |
| 1778178062 | 16.11° C | 71% | 1008.8 hPa | 0 mm | - | 367 W/m² | - |
| 1778177759 | 16.11° C | 68% | 1008.7 hPa | 0 mm | - | 273 W/m² | - |
| 1778177455 | 16.67° C | 71% | 1008.7 hPa | 0 mm | - | 892 W/m² | - |
| 1778177151 | 16.67° C | 70% | 1008.9 hPa | 0 mm | - | 243 W/m² | - |
| 1778176849 | 16.67° C | 68% | 1008.8 hPa | 0 mm | - | 205 W/m² | - |
| 1778176544 | 17.22° C | 69% | 1009 hPa | 0 mm | - | 834 W/m² | - |
| 1778176243 | 17.78° C | 68% | 1008.9 hPa | 0 mm | - | 931 W/m² | - |
| 1778175939 | 17.78° C | 69% | 1009 hPa | 0 mm | - | 918 W/m² | - |
| 1778175637 | 17.22° C | 69% | 1008.9 hPa | 0 mm | - | 835 W/m² | - |
| 1778175333 | 16.67° C | 69% | 1009.2 hPa | 0 mm | - | 900 W/m² | - |
| 1778175031 | 16.67° C | 73% | 1009 hPa | 0 mm | - | 876 W/m² | - |
| 1778174727 | 17.22° C | 70% | 1009 hPa | 0 mm | - | 912 W/m² | - |
| 1778174424 | 16.67° C | 73% | 1009.2 hPa | 0 mm | - | 924 W/m² | - |
| 1778174119 | 16.11° C | 77% | 1009.1 hPa | 0 mm | - | 903 W/m² | - |
| 1778173817 | 16.11° C | 76% | 1009.1 hPa | 0 mm | - | 617 W/m² | - |
| 1778173513 | 15.56° C | 73% | 1009.2 hPa | 0 mm | - | 629 W/m² | - |
| 1778173210 | 15.56° C | 75% | 1009.3 hPa | 0 mm | - | 266 W/m² | - |
| 1778172906 | 16.67° C | 74% | 1009.4 hPa | 0 mm | - | 248 W/m² | - |
| 1778172603 | 16.11° C | 67% | 1009.4 hPa | 0 mm | - | 380 W/m² | - |
* Rain latest hour (hover to see other rain measurements)
** Current wind speed in m/s (hover to see current wind gust speed)